Location: Centerville
(32.8776°N, 96.6203°W)
Time: 04:37:57
(UTC+00:00)

deb Kosmos-1763 - Pass Details

Date: 17 June 2021
Orbit: 445 x 454 km, 74.0° (Epoch: 29 July)

Event Time Altitude Azimuth Distance (km) Brightness Sun altitude
Exits shadow 09:55:07 21° 183° (S) 1,057 5.4 -15.1°
Maximum altitude 09:57:16 67° 106° (ESE) 495 4.2 -14.7°
Drops below altitude 10° 10:00:45 10° 22° (NNE) 1,595 7.7 -14.2°
Sets 10:02:52 0° 20° (NNE) 2,475 8.8 -13.8°
